GFSSE_prec_precacc24_315.txt.gz
Total_Precipitation_Accumulation
0.22 0.09 0.18 0.18 0.13 0.19 0.23 0.24 0.18 0.19 0.22 0.03 0.00 0.00 0.00 0.00 0.00 0.00 0.00 0.00 0.10 0.31 0.32 0.09 0.07 0.06 0.04 0.03 0.02 0.01 0.01 0.01 0.03 0.05 0.12 0.11 0.08 0.07 0.05 0.08 0.03 0.04 0.06
0.28 0.24 0.16 0.32 0.26 0.27 0.26 0.24 0.19 0.20 0.22 0.07 0.02 0.01 0.00 0.00 0.00 0.00 0.00 0.04 0.17 0.24 0.32 0.10 0.03 0.01 0.02 0.06 0.06 0.02 0.01 0.02 0.02 0.03 0.01 0.01 0.03 0.06 0.03 0.07 0.05 0.06 0.05
0.30 0.26 0.22 0.29 0.29 0.31 0.31 0.23 0.11 0.12 0.16 0.08 0.03 0.08 0.02 0.00 0.01 0.03 0.01 0.01 0.12 0.14 0.10 0.04 0.02 0.01 0.02 0.03 0.04 0.03 0.08 0.13 0.11 0.05 0.00 0.00 0.01 0.03 0.00 0.02 0.03 0.03 0.02
0.27 0.53 0.35 0.32 0.35 0.37 0.39 0.25 0.14 0.09 0.08 0.05 0.03 0.09 0.05 0.01 0.02 0.02 0.01 0.03 0.14 0.08 0.07 0.01 0.01 0.01 0.02 0.06 0.06 0.12 0.22 0.18 0.08 0.01 0.00 0.00 0.02 0.09 0.03 0.02 0.01 0.00 0.01
0.35 0.61 0.54 0.31 0.31 0.35 0.42 0.37 0.19 0.12 0.10 0.08 0.04 0.09 0.12 0.11 0.07 0.02 0.02 0.07 0.10 0.02 0.04 0.02 0.01 0.01 0.01 0.03 0.04 0.03 0.03 0.02 0.01 0.01 0.01 0.02 0.07 0.17 0.04 0.01 0.00 0.00 0.00
0.33 0.52 0.51 0.33 0.28 0.30 0.33 0.34 0.29 0.19 0.12 0.09 0.05 0.12 0.26 0.23 0.15 0.06 0.04 0.06 0.07 0.03 0.04 0.03 0.03 0.02 0.01 0.01 0.01 0.00 0.02 0.02 0.01 0.02 0.04 0.10 0.05 0.08 0.01 0.00 0.00 0.00 0.00
0.17 0.40 0.42 0.31 0.30 0.27 0.28 0.32 0.32 0.30 0.26 0.19 0.14 0.18 0.28 0.34 0.24 0.15 0.07 0.03 0.01 0.01 0.04 0.05 0.03 0.02 0.04 0.04 0.03 0.01 0.02 0.01 0.02 0.03 0.04 0.07 0.11 0.06 0.01 0.00 0.02 0.03 0.03
0.11 0.24 0.34 0.32 0.24 0.25 0.24 0.29 0.37 0.34 0.34 0.26 0.20 0.22 0.40 0.51 0.39 0.27 0.13 0.04 0.01 0.00 0.02 0.01 0.00 0.00 0.04 0.10 0.09 0.02 0.00 0.00 0.02 0.03 0.06 0.05 0.12 0.03 0.01 0.02 0.03 0.05 0.07
0.09 0.14 0.24 0.26 0.21 0.20 0.18 0.17 0.24 0.34 0.32 0.28 0.17 0.29 0.35 0.71 0.76 0.31 0.20 0.08 0.02 0.00 0.00 0.01 0.00 0.00 0.04 0.16 0.17 0.05 0.00 0.00 0.03 0.03 0.03 0.03 0.06 0.02 0.02 0.03 0.05 0.06 0.09
0.20 0.16 0.19 0.32 0.24 0.17 0.16 0.17 0.13 0.18 0.30 0.42 0.29 0.22 0.26 0.35 0.42 0.35 0.20 0.08 0.05 0.01 0.01 0.01 0.00 0.00 0.03 0.11 0.15 0.05 0.00 0.01 0.06 0.04 0.02 0.03 0.05 0.00 0.01 0.05 0.04 0.05 0.05
0.26 0.34 0.31 0.32 0.41 0.29 0.20 0.20 0.17 0.15 0.16 0.27 0.28 0.24 0.24 0.14 0.07 0.06 0.01 0.04 0.11 0.07 0.02 0.01 0.00 0.00 0.00 0.00 0.03 0.02 0.00 0.00 0.03 0.04 0.01 0.05 0.06 0.01 0.01 0.06 0.04 0.02 0.03
0.17 0.35 0.39 0.38 0.37 0.52 0.51 0.29 0.23 0.17 0.10 0.08 0.19 0.21 0.20 0.12 0.16 0.22 0.14 0.05 0.08 0.08 0.09 0.02 0.00 0.00 0.00 0.00 0.00 0.00 0.00 0.00 0.01 0.03 0.02 0.04 0.09 0.01 0.02 0.13 0.04 0.02 0.05
0.07 0.20 0.30 0.40 0.45 0.43 0.46 0.57 0.52 0.39 0.25 0.18 0.16 0.21 0.22 0.29 0.32 0.31 0.20 0.09 0.02 0.02 0.01 0.00 0.00 0.00 0.00 0.00 0.00 0.00 0.00 0.00 0.01 0.03 0.02 0.05 0.07 0.00 0.01 0.15 0.05 0.05 0.08
0.02 0.11 0.22 0.40 0.44 0.41 0.41 0.35 0.47 0.94 0.85 0.38 0.27 0.21 0.18 0.23 0.22 0.25 0.25 0.23 0.13 0.04 0.00 0.00 0.00 0.00 0.00 0.00 0.00 0.00 0.02 0.03 0.01 0.02 0.05 0.09 0.06 0.02 0.01 0.12 0.04 0.08 0.09
0.02 0.07 0.17 0.34 0.40 0.52 0.34 0.37 0.27 0.31 0.60 0.63 0.48 0.40 0.37 0.27 0.22 0.30 0.27 0.25 0.17 0.15 0.07 0.01 0.00 0.00 0.00 0.00 0.00 0.00 0.01 0.04 0.04 0.01 0.07 0.06 0.08 0.09 0.06 0.03 0.07 0.12 0.09
0.01 0.01 0.09 0.21 0.27 0.42 0.29 0.32 0.22 0.24 0.36 0.49 0.53 0.50 0.51 0.46 0.30 0.22 0.23 0.25 0.21 0.18 0.18 0.10 0.02 0.01 0.00 0.00 0.00 0.00 0.00 0.02 0.06 0.06 0.04 0.09 0.04 0.04 0.08 0.07 0.08 0.24 0.07
0.00 0.00 0.05 0.16 0.25 0.30 0.31 0.36 0.47 0.46 0.46 0.38 0.52 0.66 0.53 0.62 0.75 0.66 0.39 0.25 0.20 0.24 0.27 0.17 0.06 0.01 0.01 0.00 0.00 0.00 0.00 0.01 0.06 0.09 0.11 0.13 0.08 0.01 0.01 0.09 0.10 0.33 0.13
0.00 0.00 0.02 0.07 0.14 0.20 0.33 0.41 0.44 0.48 0.45 0.43 0.37 0.58 0.88 0.68 0.62 0.82 0.94 0.69 0.47 0.40 0.46 0.31 0.12 0.04 0.01 0.00 0.00 0.00 0.00 0.01 0.03 0.05 0.09 0.13 0.14 0.03 0.00 0.02 0.17 0.43 0.27
0.00 0.00 0.01 0.04 0.08 0.12 0.19 0.30 0.32 0.36 0.37 0.39 0.35 0.35 0.32 0.63 0.74 0.73 0.91 1.09 1.00 0.71 0.45 0.40 0.23 0.10 0.02 0.00 0.00 0.00 0.00 0.01 0.03 0.04 0.07 0.12 0.06 0.03 0.02 0.00 0.05 0.33 0.38
0.00 0.02 0.02 0.04 0.14 0.19 0.21 0.19 0.25 0.27 0.26 0.28 0.27 0.32 0.40 0.49 0.46 0.46 0.52 0.76 1.09 1.10 0.88 0.71 0.53 0.36 0.23 0.09 0.01 0.01 0.00 0.00 0.02 0.05 0.06 0.09 0.07 0.03 0.00 0.00 0.04 0.11 0.18
0.01 0.04 0.08 0.10 0.16 0.20 0.20 0.18 0.14 0.13 0.14 0.17 0.17 0.21 0.27 0.43 0.72 0.67 0.43 0.34 0.45 0.68 0.89 1.02 1.01 0.81 0.67 0.50 0.31 0.13 0.02 0.00 0.01 0.04 0.08 0.09 0.08 0.03 0.02 0.00 0.03 0.09 0.07
0.00 0.00 0.01 0.06 0.12 0.13 0.15 0.18 0.17 0.15 0.10 0.16 0.24 0.21 0.22 0.27 0.33 0.72 0.94 0.67 0.44 0.34 0.33 0.44 0.75 0.91 0.90 0.80 0.69 0.42 0.30 0.15 0.05 0.02 0.06 0.07 0.07 0.06 0.02 0.00 0.00 0.08 0.07
0.00 0.00 0.00 0.00 0.04 0.12 0.12 0.15 0.21 0.23 0.24 0.18 0.22 0.23 0.22 0.20 0.21 0.28 0.43 0.76 0.77 0.58 0.40 0.31 0.35 0.50 0.55 0.62 0.63 0.59 0.46 0.25 0.07 0.01 0.02 0.07 0.05 0.04 0.03 0.01 0.00 0.04 0.10
0.00 0.00 0.00 0.00 0.00 0.06 0.21 0.19 0.22 0.26 0.20 0.17 0.15 0.14 0.32 0.34 0.20 0.16 0.17 0.36 0.58 0.72 0.60 0.46 0.39 0.39 0.58 0.57 0.51 0.52 0.33 0.18 0.15 0.08 0.01 0.03 0.08 0.04 0.02 0.01 0.01 0.01 0.03
0.00 0.00 0.00 0.00 0.00 0.01 0.09 0.29 0.19 0.16 0.18 0.17 0.17 0.16 0.14 0.37 0.54 0.37 0.20 0.21 0.34 0.52 0.57 0.53 0.48 0.47 0.50 0.56 0.66 0.53 0.51 0.39 0.18 0.10 0.04 0.00 0.05 0.05 0.02 0.01 0.01 0.01 0.01
0.00 0.00 0.00 0.00 0.00 0.00 0.01 0.11 0.25 0.24 0.20 0.17 0.19 0.22 0.18 0.16 0.24 0.47 0.53 0.34 0.24 0.33 0.45 0.61 0.73 0.61 0.44 0.49 0.53 0.57 0.50 0.48 0.41 0.20 0.07 0.01 0.00 0.01 0.02 0.02 0.02 0.02 0.01

GFSSE_prec_precacc24_321.txt.gz
Total_Precipitation_Accumulation
0.56 0.71 0.64 0.42 0.37 0.37 0.36 0.36 0.33 0.38 0.49 0.18 0.00 0.00 0.00 0.00 0.00 0.00 0.00 0.01 0.11 0.43 0.25 0.02 0.02 0.03 0.09 0.03 0.02 0.02 0.01 0.01 0.03 0.05 0.10 0.09 0.07 0.08 0.05 0.13 0.08 0.05 0.08
0.47 0.73 0.57 0.63 0.50 0.50 0.44 0.39 0.31 0.29 0.39 0.19 0.00 0.00 0.00 0.00 0.00 0.00 0.00 0.04 0.19 0.47 0.42 0.04 0.01 0.03 0.07 0.01 0.03 0.02 0.00 0.01 0.01 0.03 0.01 0.01 0.01 0.07 0.07 0.13 0.06 0.11 0.17
0.48 0.63 0.71 0.59 0.42 0.43 0.51 0.40 0.23 0.20 0.26 0.09 0.00 0.00 0.00 0.00 0.00 0.02 0.00 0.01 0.12 0.17 0.18 0.03 0.02 0.02 0.03 0.02 0.04 0.02 0.06 0.10 0.07 0.02 0.00 0.00 0.00 0.04 0.02 0.01 0.07 0.26 0.13
0.32 0.59 0.43 0.46 0.47 0.42 0.47 0.35 0.20 0.16 0.12 0.06 0.01 0.00 0.01 0.01 0.01 0.01 0.01 0.03 0.14 0.07 0.07 0.01 0.01 0.01 0.03 0.06 0.06 0.10 0.18 0.14 0.07 0.01 0.00 0.00 0.01 0.01 0.01 0.01 0.01 0.07 0.07
0.38 0.64 0.57 0.36 0.41 0.42 0.53 0.43 0.21 0.14 0.13 0.12 0.10 0.10 0.10 0.12 0.11 0.02 0.01 0.06 0.08 0.02 0.04 0.02 0.01 0.01 0.02 0.06 0.06 0.03 0.02 0.01 0.00 0.01 0.01 0.01 0.04 0.03 0.01 0.00 0.01 0.02 0.02
0.35 0.55 0.51 0.33 0.29 0.31 0.36 0.37 0.31 0.21 0.16 0.14 0.14 0.23 0.28 0.21 0.20 0.10 0.02 0.03 0.06 0.03 0.04 0.03 0.03 0.02 0.02 0.04 0.05 0.00 0.01 0.02 0.01 0.01 0.03 0.05 0.02 0.01 0.01 0.00 0.00 0.03 0.02
0.17 0.42 0.43 0.31 0.30 0.28 0.32 0.34 0.34 0.33 0.28 0.23 0.22 0.30 0.36 0.28 0.14 0.15 0.06 0.01 0.00 0.01 0.04 0.05 0.03 0.02 0.04 0.08 0.20 0.07 0.03 0.01 0.01 0.01 0.02 0.01 0.02 0.01 0.00 0.00 0.02 0.05 0.06
0.11 0.24 0.35 0.34 0.26 0.27 0.30 0.36 0.42 0.38 0.35 0.27 0.23 0.29 0.45 0.47 0.29 0.22 0.13 0.02 0.00 0.00 0.02 0.03 0.04 0.01 0.05 0.16 0.31 0.10 0.00 0.01 0.02 0.03 0.01 0.00 0.03 0.00 0.01 0.02 0.03 0.06 0.12
0.09 0.14 0.23 0.26 0.21 0.20 0.21 0.23 0.32 0.39 0.42 0.41 0.26 0.32 0.39 0.70 0.69 0.29 0.24 0.12 0.02 0.00 0.01 0.01 0.02 0.01 0.07 0.28 0.34 0.08 0.00 0.01 0.03 0.03 0.00 0.00 0.00 0.00 0.02 0.03 0.05 0.06 0.12
0.20 0.15 0.18 0.31 0.24 0.16 0.16 0.17 0.17 0.23 0.42 0.50 0.39 0.28 0.27 0.37 0.43 0.37 0.21 0.12 0.12 0.07 0.02 0.00 0.00 0.00 0.06 0.14 0.16 0.05 0.00 0.01 0.07 0.05 0.01 0.00 0.00 0.00 0.01 0.05 0.04 0.05 0.06
0.24 0.32 0.29 0.31 0.40 0.29 0.20 0.20 0.17 0.17 0.22 0.35 0.39 0.38 0.37 0.21 0.15 0.14 0.08 0.06 0.15 0.12 0.06 0.02 0.00 0.00 0.00 0.00 0.03 0.02 0.00 0.00 0.03 0.05 0.00 0.01 0.01 0.01 0.01 0.06 0.05 0.05 0.05
0.12 0.29 0.33 0.35 0.35 0.51 0.50 0.29 0.23 0.17 0.10 0.09 0.21 0.23 0.24 0.18 0.26 0.40 0.28 0.11 0.10 0.09 0.10 0.05 0.06 0.02 0.00 0.00 0.00 0.00 0.00 0.00 0.01 0.03 0.01 0.02 0.04 0.03 0.05 0.16 0.09 0.07 0.07
0.01 0.09 0.22 0.32 0.37 0.39 0.45 0.57 0.52 0.39 0.25 0.19 0.17 0.21 0.22 0.29 0.34 0.40 0.34 0.22 0.10 0.04 0.01 0.00 0.07 0.07 0.02 0.00 0.00 0.00 0.00 0.00 0.01 0.03 0.01 0.04 0.07 0.06 0.06 0.18 0.07 0.05 0.05
0.00 0.00 0.06 0.18 0.23 0.30 0.38 0.35 0.46 0.94 0.85 0.38 0.27 0.21 0.18 0.23 0.23 0.25 0.27 0.26 0.20 0.13 0.04 0.01 0.02 0.04 0.02 0.00 0.00 0.01 0.03 0.03 0.01 0.02 0.05 0.09 0.06 0.06 0.07 0.21 0.07 0.09 0.04
0.00 0.00 0.01 0.05 0.11 0.27 0.28 0.36 0.27 0.31 0.60 0.63 0.48 0.40 0.37 0.27 0.22 0.30 0.27 0.26 0.22 0.23 0.17 0.10 0.04 0.01 0.01 0.01 0.00 0.00 0.01 0.04 0.05 0.01 0.07 0.05 0.06 0.10 0.11 0.13 0.11 0.11 0.03
0.00 0.00 0.00 0.00 0.02 0.15 0.18 0.28 0.21 0.24 0.36 0.49 0.53 0.50 0.51 0.46 0.30 0.23 0.24 0.24 0.21 0.24 0.29 0.22 0.15 0.10 0.05 0.03 0.02 0.01 0.00 0.01 0.04 0.05 0.04 0.07 0.02 0.02 0.09 0.18 0.16 0.24 0.04
0.00 0.00 0.00 0.00 0.01 0.04 0.09 0.24 0.40 0.42 0.45 0.38 0.52 0.66 0.53 0.62 0.75 0.66 0.39 0.24 0.20 0.25 0.32 0.28 0.19 0.13 0.11 0.11 0.08 0.06 0.02 0.00 0.02 0.07 0.10 0.10 0.04 0.01 0.01 0.13 0.19 0.33 0.11
0.00 0.00 0.00 0.01 0.01 0.02 0.05 0.13 0.26 0.37 0.41 0.42 0.37 0.58 0.88 0.68 0.62 0.82 0.94 0.69 0.48 0.40 0.48 0.41 0.27 0.17 0.11 0.10 0.09 0.10 0.12 0.04 0.01 0.05 0.07 0.09 0.09 0.03 0.00 0.02 0.22 0.50 0.30
0.00 0.00 0.00 0.01 0.01 0.02 0.03 0.07 0.14 0.25 0.31 0.37 0.35 0.35 0.32 0.63 0.74 0.73 0.91 1.09 1.00 0.73 0.47 0.54 0.68 0.66 0.45 0.31 0.22 0.15 0.14 0.11 0.04 0.02 0.05 0.09 0.06 0.04 0.02 0.00 0.05 0.33 0.43
0.00 0.00 0.00 0.00 0.00 0.00 0.02 0.04 0.07 0.12 0.16 0.22 0.26 0.32 0.40 0.49 0.46 0.46 0.52 0.76 1.09 1.11 0.94 0.82 0.71 0.64 0.65 0.55 0.44 0.31 0.21 0.18 0.16 0.08 0.04 0.08 0.07 0.04 0.01 0.01 0.04 0.11 0.18
0.00 0.00 0.00 0.00 0.00 0.00 0.00 0.02 0.05 0.05 0.07 0.11 0.15 0.21 0.27 0.43 0.72 0.67 0.43 0.34 0.45 0.68 0.89 1.08 1.11 0.98 0.84 0.79 0.77 0.56 0.30 0.15 0.08 0.06 0.05 0.07 0.07 0.03 0.02 0.00 0.03 0.09 0.07
0.00 0.00 0.00 0.00 0.00 0.00 0.00 0.00 0.03 0.06 0.05 0.07 0.12 0.15 0.21 0.27 0.33 0.72 0.94 0.67 0.44 0.34 0.33 0.44 0.75 0.96 0.99 1.00 1.15 0.90 0.69 0.43 0.23 0.08 0.08 0.07 0.07 0.07 0.03 0.01 0.01 0.07 0.08
0.00 0.00 0.00 0.00 0.00 0.00 0.00 0.00 0.01 0.04 0.12 0.11 0.12 0.12 0.14 0.17 0.21 0.28 0.43 0.76 0.77 0.58 0.40 0.31 0.35 0.50 0.56 0.66 0.88 1.02 0.89 0.59 0.28 0.12 0.09 0.08 0.05 0.04 0.02 0.01 0.01 0.04 0.10
0.00 0.00 0.00 0.00 0.00 0.00 0.00 0.00 0.00 0.03 0.08 0.12 0.13 0.11 0.13 0.10 0.11 0.14 0.17 0.36 0.58 0.72 0.60 0.46 0.39 0.39 0.58 0.58 0.57 0.71 0.69 0.48 0.35 0.19 0.07 0.07 0.10 0.04 0.02 0.01 0.01 0.01 0.03
0.00 0.00 0.00 0.00 0.00 0.00 0.00 0.00 0.00 0.01 0.06 0.08 0.13 0.15 0.10 0.10 0.12 0.10 0.11 0.20 0.34 0.52 0.57 0.53 0.48 0.47 0.50 0.56 0.67 0.57 0.64 0.61 0.52 0.51 0.28 0.11 0.09 0.06 0.03 0.02 0.01 0.01 0.01
0.00 0.00 0.00 0.00 0.00 0.00 0.00 0.00 0.00 0.00 0.03 0.05 0.09 0.18 0.16 0.13 0.10 0.10 0.11 0.12 0.20 0.33 0.45 0.61 0.73 0.61 0.44 0.49 0.53 0.57 0.51 0.54 0.58 0.60 0.48 0.26 0.17 0.09 0.06 0.04 0.02 0.02 0.01

GFSSE_prec_precacc24_324.txt.gz
Total_Precipitation_Accumulation
0.62 0.89 0.84 0.57 0.41 0.40 0.40 0.43 0.43 0.49 0.59 0.22 0.00 0.00 0.00 0.00 0.00 0.00 0.00 0.01 0.07 0.42 0.26 0.02 0.03 0.05 0.09 0.03 0.02 0.02 0.02 0.03 0.03 0.04 0.07 0.07 0.04 0.07 0.05 0.13 0.13 0.07 0.08
0.47 0.73 0.62 0.70 0.50 0.49 0.46 0.43 0.38 0.38 0.47 0.20 0.00 0.00 0.00 0.00 0.00 0.00 0.00 0.02 0.11 0.39 0.34 0.00 0.01 0.04 0.07 0.02 0.06 0.02 0.00 0.00 0.00 0.02 0.00 0.02 0.01 0.08 0.07 0.14 0.15 0.15 0.18
0.48 0.63 0.71 0.62 0.44 0.44 0.55 0.51 0.32 0.26 0.29 0.09 0.00 0.00 0.00 0.00 0.00 0.02 0.00 0.01 0.15 0.22 0.17 0.03 0.03 0.02 0.03 0.02 0.04 0.02 0.05 0.08 0.04 0.00 0.00 0.04 0.09 0.07 0.04 0.03 0.20 0.35 0.14
0.32 0.59 0.43 0.47 0.49 0.44 0.50 0.71 0.31 0.18 0.15 0.08 0.03 0.01 0.02 0.03 0.01 0.01 0.01 0.03 0.14 0.07 0.06 0.01 0.02 0.02 0.03 0.05 0.03 0.06 0.13 0.13 0.06 0.00 0.00 0.01 0.07 0.05 0.06 0.04 0.06 0.18 0.12
0.38 0.64 0.57 0.36 0.42 0.42 0.55 0.45 0.21 0.14 0.14 0.11 0.10 0.12 0.14 0.15 0.13 0.02 0.03 0.07 0.08 0.02 0.04 0.02 0.01 0.01 0.03 0.07 0.05 0.01 0.01 0.01 0.00 0.00 0.00 0.00 0.00 0.01 0.01 0.02 0.02 0.03 0.04
0.35 0.55 0.51 0.33 0.29 0.31 0.37 0.39 0.32 0.23 0.18 0.15 0.14 0.22 0.26 0.18 0.22 0.12 0.03 0.03 0.07 0.03 0.04 0.03 0.03 0.02 0.02 0.06 0.07 0.00 0.01 0.01 0.00 0.01 0.01 0.01 0.01 0.01 0.00 0.00 0.02 0.06 0.04
0.17 0.42 0.43 0.31 0.30 0.28 0.32 0.37 0.41 0.39 0.36 0.32 0.24 0.28 0.31 0.25 0.15 0.18 0.07 0.00 0.00 0.01 0.04 0.05 0.03 0.02 0.04 0.09 0.22 0.08 0.03 0.01 0.01 0.01 0.00 0.00 0.01 0.01 0.00 0.00 0.02 0.08 0.08
0.10 0.24 0.35 0.34 0.26 0.26 0.29 0.36 0.43 0.43 0.43 0.36 0.28 0.31 0.42 0.43 0.27 0.23 0.12 0.05 0.01 0.00 0.02 0.03 0.05 0.01 0.05 0.16 0.33 0.11 0.01 0.03 0.01 0.01 0.00 0.00 0.00 0.00 0.01 0.02 0.03 0.07 0.15
0.08 0.12 0.21 0.26 0.20 0.20 0.20 0.23 0.31 0.39 0.43 0.43 0.31 0.36 0.38 0.68 0.61 0.27 0.21 0.12 0.06 0.04 0.03 0.02 0.03 0.01 0.07 0.28 0.35 0.10 0.00 0.01 0.04 0.02 0.00 0.00 0.00 0.00 0.02 0.03 0.05 0.06 0.11
0.17 0.14 0.15 0.25 0.21 0.15 0.15 0.17 0.17 0.22 0.41 0.49 0.41 0.35 0.32 0.38 0.43 0.35 0.20 0.12 0.12 0.09 0.07 0.04 0.02 0.01 0.06 0.14 0.16 0.05 0.00 0.00 0.06 0.04 0.00 0.00 0.01 0.00 0.01 0.05 0.04 0.04 0.04
0.11 0.23 0.22 0.25 0.33 0.25 0.18 0.17 0.15 0.15 0.21 0.34 0.39 0.38 0.39 0.22 0.16 0.15 0.12 0.08 0.15 0.12 0.06 0.05 0.04 0.02 0.00 0.00 0.03 0.02 0.00 0.00 0.02 0.04 0.00 0.01 0.02 0.03 0.03 0.07 0.05 0.05 0.03
0.01 0.09 0.17 0.20 0.25 0.43 0.40 0.24 0.22 0.16 0.10 0.09 0.21 0.23 0.24 0.18 0.26 0.41 0.30 0.13 0.11 0.10 0.10 0.05 0.08 0.05 0.02 0.00 0.00 0.00 0.00 0.00 0.01 0.03 0.01 0.01 0.03 0.03 0.06 0.20 0.11 0.08 0.10
0.00 0.02 0.10 0.17 0.21 0.24 0.38 0.48 0.47 0.38 0.25 0.19 0.17 0.21 0.22 0.29 0.34 0.40 0.34 0.22 0.11 0.04 0.01 0.00 0.07 0.08 0.03 0.00 0.00 0.00 0.00 0.00 0.01 0.03 0.01 0.03 0.05 0.06 0.07 0.23 0.10 0.05 0.04
0.00 0.00 0.01 0.08 0.12 0.16 0.23 0.29 0.42 0.92 0.85 0.38 0.27 0.21 0.18 0.23 0.23 0.25 0.27 0.26 0.20 0.13 0.04 0.01 0.02 0.04 0.02 0.00 0.00 0.01 0.03 0.03 0.01 0.02 0.05 0.09 0.05 0.06 0.08 0.23 0.13 0.08 0.02
0.00 0.00 0.00 0.00 0.03 0.08 0.14 0.23 0.24 0.30 0.60 0.63 0.48 0.40 0.37 0.27 0.22 0.30 0.27 0.26 0.22 0.23 0.17 0.10 0.04 0.01 0.01 0.01 0.01 0.00 0.01 0.04 0.06 0.02 0.07 0.05 0.06 0.11 0.13 0.14 0.13 0.10 0.03
0.00 0.00 0.00 0.00 0.00 0.01 0.03 0.11 0.16 0.23 0.35 0.49 0.53 0.50 0.51 0.46 0.30 0.23 0.24 0.24 0.21 0.24 0.29 0.22 0.15 0.10 0.05 0.04 0.02 0.01 0.00 0.01 0.05 0.05 0.04 0.07 0.02 0.03 0.12 0.20 0.15 0.21 0.04
0.00 0.00 0.00 0.00 0.00 0.00 0.02 0.06 0.12 0.18 0.32 0.33 0.51 0.66 0.53 0.62 0.75 0.66 0.39 0.24 0.20 0.25 0.32 0.28 0.19 0.13 0.11 0.11 0.08 0.08 0.08 0.04 0.03 0.07 0.09 0.09 0.04 0.02 0.02 0.17 0.20 0.33 0.16
0.00 0.00 0.00 0.00 0.00 0.00 0.00 0.01 0.04 0.10 0.21 0.33 0.36 0.57 0.88 0.68 0.62 0.82 0.94 0.69 0.48 0.40 0.48 0.41 0.27 0.17 0.11 0.10 0.09 0.10 0.16 0.15 0.09 0.08 0.07 0.08 0.09 0.04 0.01 0.03 0.23 0.49 0.34
0.00 0.00 0.00 0.00 0.00 0.00 0.00 0.00 0.00 0.03 0.10 0.22 0.28 0.33 0.31 0.63 0.74 0.73 0.91 1.09 1.00 0.73 0.47 0.54 0.68 0.66 0.45 0.31 0.22 0.15 0.14 0.14 0.09 0.05 0.05 0.06 0.05 0.04 0.04 0.01 0.03 0.33 0.45
0.00 0.00 0.00 0.00 0.00 0.00 0.00 0.00 0.00 0.00 0.02 0.08 0.14 0.27 0.37 0.47 0.46 0.46 0.52 0.76 1.09 1.11 0.94 0.82 0.71 0.64 0.65 0.55 0.44 0.31 0.21 0.17 0.16 0.10 0.05 0.06 0.06 0.04 0.01 0.02 0.03 0.10 0.19
0.00 0.00 0.00 0.00 0.00 0.00 0.00 0.00 0.00 0.00 0.00 0.01 0.05 0.13 0.21 0.39 0.71 0.67 0.43 0.34 0.45 0.68 0.89 1.08 1.11 0.98 0.84 0.79 0.77 0.56 0.30 0.15 0.08 0.06 0.06 0.07 0.08 0.04 0.02 0.01 0.03 0.09 0.08
0.00 0.00 0.00 0.00 0.00 0.00 0.00 0.00 0.00 0.00 0.00 0.00 0.01 0.06 0.15 0.23 0.31 0.72 0.94 0.67 0.44 0.34 0.33 0.44 0.75 0.96 0.99 1.00 1.15 0.90 0.69 0.42 0.23 0.07 0.05 0.05 0.07 0.07 0.03 0.01 0.02 0.10 0.10
0.00 0.00 0.00 0.00 0.00 0.00 0.00 0.00 0.00 0.00 0.00 0.00 0.03 0.05 0.07 0.14 0.19 0.27 0.43 0.76 0.77 0.58 0.40 0.31 0.35 0.50 0.56 0.66 0.88 1.02 0.89 0.59 0.28 0.13 0.09 0.07 0.07 0.09 0.09 0.06 0.03 0.05 0.12
0.00 0.00 0.00 0.00 0.00 0.00 0.00 0.00 0.00 0.00 0.00 0.00 0.01 0.02 0.03 0.06 0.09 0.13 0.17 0.36 0.58 0.72 0.60 0.46 0.39 0.39 0.58 0.58 0.57 0.71 0.69 0.48 0.35 0.20 0.07 0.07 0.09 0.07 0.05 0.06 0.07 0.03 0.04
0.00 0.00 0.00 0.00 0.00 0.00 0.00 0.00 0.00 0.00 0.00 0.00 0.00 0.01 0.02 0.04 0.08 0.08 0.10 0.19 0.33 0.51 0.57 0.53 0.48 0.47 0.50 0.56 0.67 0.57 0.64 0.61 0.52 0.51 0.29 0.11 0.09 0.06 0.04 0.04 0.06 0.04 0.02
0.00 0.00 0.00 0.00 0.00 0.00 0.00 0.00 0.00 0.00 0.00 0.00 0.00 0.00 0.01 0.03 0.05 0.06 0.10 0.11 0.18 0.31 0.45 0.61 0.73 0.61 0.44 0.49 0.53 0.57 0.51 0.54 0.58 0.61 0.48 0.26 0.17 0.09 0.06 0.04 0.03 0.03 0.02

GFSSE_prec_precacc24_327.txt.gz
Total_Precipitation_Accumulation
0.63 0.91 0.87 0.75 0.67 0.55 0.43 0.43 0.44 0.52 0.61 0.22 0.00 0.00 0.00 0.00 0.00 0.01 0.01 0.02 0.09 0.46 0.28 0.03 0.05 0.06 0.10 0.03 0.03 0.02 0.05 0.11 0.03 0.02 0.05 0.04 0.05 0.07 0.05 0.14 0.15 0.08 0.08
0.47 0.73 0.62 0.77 0.59 0.71 0.53 0.44 0.38 0.37 0.46 0.20 0.00 0.00 0.00 0.00 0.00 0.00 0.01 0.03 0.09 0.40 0.34 0.02 0.02 0.04 0.07 0.05 0.10 0.02 0.00 0.01 0.00 0.01 0.01 0.04 0.02 0.10 0.08 0.22 0.22 0.16 0.18
0.48 0.63 0.71 0.64 0.47 0.55 0.74 0.63 0.43 0.29 0.29 0.11 0.03 0.01 0.00 0.00 0.01 0.02 0.01 0.03 0.17 0.20 0.14 0.03 0.02 0.01 0.03 0.03 0.04 0.02 0.05 0.04 0.00 0.00 0.00 0.07 0.16 0.09 0.05 0.11 0.31 0.37 0.14
0.32 0.59 0.43 0.49 0.51 0.46 0.52 0.95 0.67 0.27 0.17 0.13 0.07 0.05 0.07 0.05 0.02 0.02 0.01 0.03 0.13 0.05 0.04 0.01 0.02 0.01 0.02 0.05 0.03 0.05 0.12 0.10 0.02 0.00 0.00 0.01 0.18 0.07 0.07 0.05 0.13 0.26 0.12
0.38 0.64 0.57 0.37 0.44 0.44 0.54 0.46 0.32 0.20 0.14 0.12 0.12 0.15 0.22 0.19 0.18 0.09 0.05 0.07 0.08 0.02 0.04 0.02 0.01 0.01 0.03 0.07 0.03 0.01 0.01 0.01 0.00 0.00 0.00 0.00 0.00 0.00 0.01 0.02 0.03 0.03 0.04
0.35 0.54 0.51 0.32 0.29 0.30 0.35 0.40 0.44 0.35 0.28 0.16 0.14 0.23 0.29 0.22 0.23 0.17 0.06 0.05 0.08 0.03 0.04 0.03 0.03 0.02 0.02 0.06 0.07 0.00 0.00 0.00 0.00 0.00 0.00 0.00 0.00 0.00 0.00 0.01 0.03 0.08 0.04
0.16 0.40 0.41 0.29 0.28 0.26 0.29 0.35 0.41 0.41 0.41 0.37 0.24 0.26 0.25 0.22 0.16 0.18 0.08 0.02 0.01 0.02 0.04 0.07 0.06 0.03 0.04 0.10 0.22 0.07 0.02 0.00 0.00 0.00 0.00 0.00 0.00 0.00 0.00 0.00 0.02 0.09 0.07
0.08 0.16 0.24 0.28 0.22 0.23 0.25 0.30 0.37 0.41 0.43 0.37 0.32 0.33 0.35 0.34 0.26 0.23 0.11 0.05 0.02 0.02 0.04 0.05 0.07 0.04 0.06 0.16 0.33 0.11 0.01 0.03 0.01 0.01 0.00 0.00 0.00 0.00 0.01 0.02 0.03 0.07 0.14
0.08 0.09 0.11 0.16 0.15 0.17 0.17 0.19 0.27 0.33 0.40 0.42 0.32 0.37 0.37 0.62 0.56 0.26 0.20 0.12 0.06 0.04 0.04 0.04 0.05 0.04 0.10 0.30 0.36 0.10 0.00 0.01 0.04 0.02 0.00 0.00 0.00 0.00 0.02 0.03 0.05 0.04 0.10
0.08 0.08 0.11 0.18 0.17 0.12 0.13 0.15 0.16 0.18 0.36 0.41 0.37 0.35 0.34 0.37 0.40 0.34 0.18 0.12 0.13 0.09 0.07 0.05 0.04 0.02 0.07 0.15 0.19 0.07 0.01 0.00 0.03 0.03 0.00 0.00 0.00 0.00 0.01 0.05 0.03 0.02 0.04
0.01 0.04 0.05 0.11 0.21 0.19 0.15 0.15 0.15 0.15 0.19 0.31 0.35 0.36 0.38 0.22 0.18 0.16 0.12 0.09 0.15 0.12 0.06 0.05 0.04 0.03 0.01 0.01 0.03 0.02 0.01 0.00 0.01 0.04 0.00 0.00 0.02 0.04 0.04 0.07 0.03 0.03 0.04
0.00 0.00 0.00 0.01 0.07 0.21 0.23 0.16 0.17 0.15 0.09 0.09 0.21 0.23 0.24 0.18 0.26 0.41 0.30 0.13 0.11 0.10 0.10 0.05 0.08 0.05 0.02 0.00 0.00 0.00 0.00 0.00 0.01 0.02 0.01 0.00 0.03 0.08 0.10 0.21 0.10 0.07 0.11
0.00 0.00 0.00 0.00 0.00 0.05 0.23 0.32 0.34 0.28 0.23 0.19 0.17 0.21 0.21 0.28 0.33 0.40 0.33 0.21 0.11 0.04 0.01 0.00 0.07 0.08 0.03 0.00 0.00 0.00 0.00 0.00 0.01 0.03 0.01 0.02 0.03 0.07 0.08 0.24 0.10 0.04 0.05
0.00 0.00 0.00 0.00 0.00 0.00 0.02 0.11 0.27 0.75 0.75 0.37 0.27 0.21 0.18 0.23 0.23 0.25 0.26 0.26 0.20 0.13 0.04 0.01 0.02 0.04 0.02 0.00 0.00 0.01 0.03 0.03 0.01 0.02 0.04 0.07 0.05 0.08 0.13 0.26 0.12 0.06 0.05
0.00 0.00 0.00 0.00 0.00 0.00 0.00 0.01 0.05 0.18 0.47 0.53 0.42 0.39 0.36 0.25 0.22 0.30 0.27 0.26 0.22 0.23 0.17 0.10 0.04 0.01 0.01 0.01 0.01 0.00 0.01 0.04 0.06 0.02 0.06 0.04 0.06 0.12 0.17 0.16 0.13 0.07 0.05
0.00 0.00 0.00 0.00 0.00 0.00 0.00 0.00 0.00 0.04 0.18 0.34 0.43 0.45 0.49 0.46 0.30 0.23 0.24 0.24 0.21 0.24 0.29 0.22 0.15 0.10 0.05 0.04 0.02 0.01 0.00 0.01 0.05 0.05 0.04 0.07 0.02 0.03 0.14 0.24 0.17 0.21 0.05
0.00 0.00 0.00 0.00 0.00 0.00 0.00 0.00 0.00 0.00 0.09 0.13 0.33 0.54 0.48 0.61 0.75 0.66 0.39 0.24 0.20 0.25 0.32 0.28 0.19 0.13 0.11 0.11 0.08 0.08 0.08 0.04 0.03 0.07 0.09 0.08 0.04 0.02 0.02 0.21 0.21 0.32 0.20
0.00 0.00 0.00 0.00 0.00 0.00 0.00 0.00 0.00 0.00 0.02 0.11 0.15 0.41 0.82 0.66 0.62 0.82 0.94 0.69 0.48 0.40 0.48 0.41 0.27 0.17 0.11 0.10 0.09 0.10 0.16 0.15 0.08 0.07 0.06 0.06 0.09 0.04 0.01 0.03 0.24 0.48 0.38
0.00 0.00 0.00 0.00 0.00 0.00 0.00 0.00 0.00 0.00 0.00 0.02 0.08 0.13 0.21 0.59 0.72 0.72 0.91 1.09 1.00 0.73 0.47 0.54 0.68 0.66 0.45 0.31 0.22 0.15 0.14 0.14 0.09 0.05 0.04 0.05 0.04 0.04 0.04 0.02 0.02 0.30 0.50
0.00 0.00 0.00 0.00 0.00 0.00 0.00 0.00 0.00 0.00 0.00 0.00 0.01 0.10 0.21 0.36 0.40 0.43 0.51 0.76 1.09 1.11 0.94 0.82 0.71 0.64 0.65 0.55 0.44 0.31 0.21 0.17 0.15 0.09 0.05 0.05 0.05 0.04 0.02 0.02 0.02 0.10 0.21
0.00 0.00 0.00 0.00 0.00 0.00 0.00 0.00 0.00 0.00 0.00 0.00 0.00 0.00 0.05 0.25 0.59 0.59 0.40 0.33 0.45 0.68 0.89 1.08 1.11 0.98 0.84 0.79 0.77 0.56 0.29 0.15 0.08 0.05 0.05 0.05 0.05 0.04 0.03 0.02 0.02 0.07 0.09
0.00 0.00 0.00 0.00 0.00 0.00 0.00 0.00 0.00 0.00 0.00 0.00 0.00 0.00 0.00 0.05 0.15 0.61 0.88 0.64 0.44 0.34 0.33 0.44 0.75 0.96 0.99 1.00 1.15 0.90 0.68 0.41 0.23 0.07 0.05 0.04 0.05 0.05 0.04 0.02 0.03 0.10 0.11
0.00 0.00 0.00 0.00 0.00 0.00 0.00 0.00 0.00 0.00 0.00 0.00 0.00 0.00 0.00 0.00 0.01 0.09 0.37 0.70 0.74 0.58 0.40 0.31 0.35 0.50 0.56 0.66 0.88 1.02 0.89 0.59 0.27 0.13 0.08 0.06 0.06 0.08 0.09 0.06 0.03 0.05 0.13
0.00 0.00 0.00 0.00 0.00 0.00 0.00 0.00 0.00 0.00 0.00 0.00 0.00 0.00 0.00 0.00 0.00 0.00 0.09 0.32 0.54 0.70 0.60 0.46 0.39 0.39 0.58 0.58 0.57 0.71 0.69 0.48 0.35 0.20 0.07 0.05 0.06 0.06 0.05 0.06 0.07 0.05 0.07
0.00 0.00 0.00 0.00 0.00 0.00 0.00 0.00 0.00 0.00 0.00 0.00 0.00 0.00 0.00 0.00 0.00 0.00 0.00 0.08 0.31 0.50 0.57 0.53 0.48 0.47 0.50 0.56 0.67 0.57 0.64 0.61 0.52 0.51 0.29 0.11 0.07 0.04 0.03 0.04 0.06 0.05 0.04
0.00 0.00 0.00 0.00 0.00 0.00 0.00 0.00 0.00 0.00 0.00 0.00 0.00 0.00 0.00 0.00 0.00 0.00 0.00 0.02 0.16 0.29 0.42 0.60 0.73 0.61 0.44 0.49 0.53 0.57 0.51 0.54 0.58 0.61 0.48 0.26 0.17 0.09 0.06 0.04 0.03 0.03 0.02